Tracking 23752 objects as of 24-Oct-2021
HD Live streaming from Space Station
objects crossing your sky now

BLOCK DM-SL R/B

Track BLOCK DM-SL R/B now!
10-day predictions


NORAD ID: 32730
Int'l Code: 2008-013B
Perigee: 247.5 km
Apogee: 23,942.1 km
Inclination: 0.5 °
Period: 416.2 minutes
Semi major axis: 18465 km
RCS: 20.4628 m2 (large)
Launch date: March 19, 2008
Source: Sea Launch (SEAL)
Launch site: SEA LAUNCH (SEAL)

Note: This is a ROCKET BODY
aabbcc
Your satellite tracking list
Your tracking list is empty




NASA's NSSDC Master Catalog

Two Line Element Set (TLE):
1 32730U 08013B   21296.66001921  .00003546  00000-0  41952-3 0  9994
2 32730   0.4538 323.1987 6415798 345.3407   9.6933  3.45979394137426
Source of the keplerian elements: AFSPC